TimeCST,TemperatureF,Dew PointF,Humidity,Sea Level PressureIn,VisibilityMPH,Wind Direction,Wind SpeedMPH,Gust SpeedMPH,PrecipitationIn,Events,Conditions,WindDirDegrees,DateUTC
12:15 AM,44.6,37.4,76,29.79,10.0,NE,3.5,-,N/A,,Overcast,50,2013-03-05 06:15:00
12:35 AM,44.6,37.4,76,29.79,10.0,NE,3.5,-,N/A,,Overcast,50,2013-03-05 06:35:00
12:55 AM,44.6,37.4,76,29.79,10.0,NE,3.5,-,N/A,,Overcast,50,2013-03-05 06:55:00
1:15 AM,44.6,37.4,76,29.79,10.0,North,3.5,-,N/A,,Overcast,10,2013-03-05 07:15:00
1:35 AM,44.6,35.6,71,29.79,10.0,North,3.5,-,N/A,,Overcast,10,2013-03-05 07:35:00
1:55 AM,44.6,37.4,76,29.79,10.0,NNE,4.6,-,N/A,,Overcast,20,2013-03-05 07:55:00
2:15 AM,42.8,37.4,81,29.79,10.0,NE,3.5,-,N/A,,Overcast,40,2013-03-05 08:15:00
2:35 AM,44.6,37.4,76,29.79,10.0,Calm,Calm,-,N/A,,Overcast,0,2013-03-05 08:35:00
2:55 AM,44.6,35.6,71,29.78,10.0,Calm,Calm,-,N/A,,Overcast,0,2013-03-05 08:55:00
3:15 AM,42.8,37.4,81,29.78,10.0,Calm,Calm,-,N/A,,Unknown,0,2013-03-05 09:15:00
3:35 AM,42.8,37.4,81,29.79,10.0,NW,3.5,-,N/A,,Overcast,310,2013-03-05 09:35:00
3:55 AM,42.8,37.4,81,29.79,10.0,WNW,3.5,-,N/A,,Overcast,290,2013-03-05 09:55:00
4:15 AM,41.0,37.4,87,29.80,10.0,West,5.8,-,N/A,,Mostly Cloudy,280,2013-03-05 10:15:00
4:35 AM,41.0,37.4,87,29.81,10.0,WNW,5.8,-,N/A,,Overcast,290,2013-03-05 10:35:00
4:55 AM,39.2,35.6,87,29.80,10.0,NW,4.6,-,N/A,,Scattered Clouds,320,2013-03-05 10:55:00
5:15 AM,39.2,35.6,87,29.80,10.0,NW,4.6,-,N/A,,Clear,310,2013-03-05 11:15:00
5:35 AM,39.2,35.6,87,29.81,10.0,NNW,5.8,-,N/A,,Mostly Cloudy,340,2013-03-05 11:35:00
5:55 AM,39.2,35.6,87,29.82,10.0,WNW,4.6,-,N/A,,Overcast,290,2013-03-05 11:55:00
6:15 AM,39.2,35.6,87,29.82,10.0,WNW,4.6,-,N/A,,Overcast,300,2013-03-05 12:15:00
6:35 AM,39.2,35.6,87,29.82,10.0,NW,6.9,-,N/A,,Overcast,310,2013-03-05 12:35:00
7:15 AM,41.0,35.6,81,29.82,10.0,WNW,15.0,21.9,N/A,,Overcast,300,2013-03-05 13:15:00
7:35 AM,39.2,35.6,87,29.84,10.0,WNW,12.7,-,N/A,,Overcast,300,2013-03-05 13:35:00
7:55 AM,39.2,35.6,87,29.85,10.0,WNW,15.0,23.0,N/A,,Overcast,300,2013-03-05 13:55:00
8:15 AM,37.4,33.8,87,29.86,10.0,WNW,13.8,23.0,N/A,,Drizzle,290,2013-03-05 14:15:00
8:35 AM,37.4,33.8,87,29.87,4.0,WNW,15.0,25.3,N/A,,Drizzle,300,2013-03-05 14:35:00
8:55 AM,35.6,33.8,93,29.88,5.0,WNW,13.8,19.6,N/A,,Drizzle,300,2013-03-05 14:55:00
9:15 AM,35.6,32.0,87,29.88,3.0,WNW,15.0,23.0,N/A,Rain,Light Rain,300,2013-03-05 15:15:00
9:35 AM,33.8,32.0,93,29.89,1.5,WNW,13.8,23.0,0.01,Snow,Light Snow,300,2013-03-05 15:35:00
9:55 AM,33.8,32.0,93,29.90,0.8,WNW,11.5,17.3,0.02,Snow,Light Snow,290,2013-03-05 15:55:00
10:15 AM,33.8,30.2,87,29.90,0.2,WNW,9.2,17.3,0.01,Snow,Snow,290,2013-03-05 16:15:00
10:35 AM,33.8,32.0,93,29.89,0.2,WNW,10.4,16.1,0.02,Snow,Snow,300,2013-03-05 16:35:00
10:55 AM,33.8,32.0,93,29.90,0.2,WNW,10.4,17.3,0.04,Snow,Snow,300,2013-03-05 16:55:00
11:15 AM,33.8,32.0,93,29.91,0.2,WNW,11.5,17.3,0.02,Snow,Snow,300,2013-03-05 17:15:00
11:35 AM,33.8,32.0,93,29.91,1.0,WNW,13.8,-,0.03,Snow,Light Snow,300,2013-03-05 17:35:00
11:55 AM,33.8,32.0,93,29.91,10.0,WNW,13.8,19.6,0.03,,Overcast,300,2013-03-05 17:55:00
12:15 PM,35.6,32.0,87,29.91,10.0,WNW,13.8,21.9,N/A,,Overcast,300,2013-03-05 18:15:00
12:35 PM,35.6,30.2,81,29.91,10.0,WNW,17.3,26.5,N/A,,Overcast,290,2013-03-05 18:35:00
12:55 PM,35.6,30.2,81,29.91,10.0,WNW,16.1,23.0,N/A,,Overcast,300,2013-03-05 18:55:00
1:15 PM,35.6,30.2,81,29.91,10.0,WNW,16.1,24.2,N/A,,Overcast,290,2013-03-05 19:15:00
1:35 PM,35.6,30.2,81,29.92,10.0,WNW,20.7,26.5,N/A,,Overcast,290,2013-03-05 19:35:00
1:55 PM,35.6,30.2,81,29.93,10.0,WNW,18.4,25.3,N/A,,Overcast,300,2013-03-05 19:55:00
2:15 PM,35.6,28.4,75,29.94,10.0,WNW,13.8,21.9,N/A,,Overcast,300,2013-03-05 20:15:00
2:35 PM,35.6,28.4,75,29.94,10.0,WNW,17.3,23.0,N/A,,Overcast,290,2013-03-05 20:35:00
2:55 PM,35.6,28.4,75,29.94,10.0,WNW,16.1,24.2,N/A,,Overcast,290,2013-03-05 20:55:00
3:15 PM,35.6,26.6,70,29.95,10.0,WNW,18.4,24.2,N/A,,Overcast,290,2013-03-05 21:15:00
3:35 PM,35.6,26.6,70,29.96,10.0,WNW,16.1,20.7,N/A,,Overcast,290,2013-03-05 21:35:00
3:55 PM,35.6,24.8,65,29.97,10.0,West,21.9,33.4,N/A,,Overcast,280,2013-03-05 21:55:00
4:15 PM,35.6,24.8,65,29.99,10.0,West,21.9,29.9,N/A,,Overcast,280,2013-03-05 22:15:00
4:35 PM,33.8,24.8,70,30.00,10.0,West,15.0,39.1,N/A,,Overcast,280,2013-03-05 22:35:00
4:55 PM,33.8,24.8,70,30.01,10.0,WNW,17.3,28.8,N/A,,Overcast,290,2013-03-05 22:55:00
5:15 PM,33.8,23.0,65,30.01,10.0,West,16.1,24.2,N/A,,Overcast,280,2013-03-05 23:15:00
5:35 PM,33.8,24.8,70,30.01,10.0,WNW,17.3,26.5,N/A,,Overcast,290,2013-03-05 23:35:00
5:55 PM,33.8,26.6,75,30.02,10.0,West,17.3,27.6,N/A,Snow,Light Snow,280,2013-03-05 23:55:00
6:15 PM,32.0,26.6,80,30.03,10.0,West,12.7,19.6,N/A,Snow,Light Snow,280,2013-03-06 00:15:00
6:35 PM,33.8,26.6,75,30.03,10.0,West,12.7,19.6,N/A,Snow,Light Snow,280,2013-03-06 00:35:00
6:55 PM,33.8,26.6,75,30.03,10.0,WNW,16.1,23.0,N/A,,Overcast,290,2013-03-06 00:55:00
7:15 PM,33.8,26.6,75,30.04,7.0,WNW,15.0,23.0,N/A,Snow,Light Snow,290,2013-03-06 01:15:00
7:35 PM,33.8,26.6,75,30.03,10.0,West,18.4,26.5,N/A,,Overcast,280,2013-03-06 01:35:00
7:55 PM,33.8,26.6,75,30.03,10.0,WNW,20.7,28.8,N/A,,Overcast,290,2013-03-06 01:55:00
8:15 PM,33.8,26.6,75,30.04,10.0,WNW,19.6,31.1,N/A,,Overcast,290,2013-03-06 02:15:00
8:35 PM,33.8,26.6,75,30.05,10.0,WNW,17.3,26.5,N/A,,Overcast,290,2013-03-06 02:35:00
8:55 PM,33.8,26.6,75,30.05,10.0,WNW,17.3,25.3,N/A,,Overcast,290,2013-03-06 02:55:00
9:15 PM,33.8,26.6,75,30.05,10.0,WNW,19.6,26.5,N/A,,Overcast,300,2013-03-06 03:15:00
9:35 PM,33.8,26.6,75,30.06,10.0,WNW,20.7,27.6,N/A,,Overcast,290,2013-03-06 03:35:00
9:55 PM,33.8,26.6,75,30.07,10.0,WNW,20.7,29.9,N/A,,Overcast,300,2013-03-06 03:55:00
10:15 PM,33.8,26.6,75,30.07,10.0,WNW,16.1,25.3,N/A,,Overcast,290,2013-03-06 04:15:00
10:35 PM,33.8,26.6,75,30.08,10.0,WNW,16.1,27.6,N/A,,Overcast,300,2013-03-06 04:35:00
10:55 PM,33.8,26.6,75,30.08,7.0,WNW,19.6,26.5,N/A,Snow,Light Snow,300,2013-03-06 04:55:00
11:15 PM,33.8,26.6,75,30.08,10.0,WNW,15.0,27.6,N/A,,Overcast,300,2013-03-06 05:15:00
11:35 PM,33.8,26.6,75,30.08,10.0,WNW,19.6,27.6,N/A,Snow,Light Snow,300,2013-03-06 05:35:00
11:55 PM,33.8,26.6,75,30.10,10.0,WNW,15.0,24.2,N/A,,Overcast,300,2013-03-06 05:55:00